Date String (YYYY-MM-DD hh:mm:ss) UTC,Instrument flags,Ambient pressure (hPa),Sample flow (lpm),Bypass flow (lpm),Sample temperature (°C),Ambient temperature (°C),ASC tube jacket temperature (°C),LED temperature (°C),Box temperature (°C),Sample RH (%),Span deviation,Mass concentration (μg/m³),Mass concentration (μg/m³),Mass concentration (μg/m³)
DateTimeUTC,F1_M11,P_M11,Q1_M11,Q2_M11,T1_M11,T2_M11,T3_M11,T4_M11,T5_M11,U1_M11,ZSPAN_M11,X0_M11,X2_M11,X1_M11
2022-09-12 05:00:00,,0830.9,5.00,0.00,29.8,28.3,00.0,38.6,31.5,13.4,0003.2,0009.25,0006.91,0006.68
2022-09-12 05:01:00,,0830.9,4.98,0.00,29.7,28.3,00.0,38.6,31.4,13.3,0003.3,0009.23,0006.90,0006.67
2022-09-12 05:02:00,,0830.9,5.00,0.00,29.7,28.3,00.0,38.6,31.4,13.5,0003.3,0009.19,0006.89,0006.67
2022-09-12 05:03:00,,0830.9,5.01,0.00,29.7,28.3,00.0,38.6,31.5,14.2,0003.2,0009.11,0006.89,0006.68
2022-09-12 05:04:00,,0830.9,4.99,0.00,29.8,28.4,00.0,38.6,31.5,13.7,0003.0,0009.20,0006.91,0006.70
2022-09-12 05:05:00,,0830.9,5.00,0.00,29.8,28.3,00.0,38.6,31.5,14.0,0002.9,0009.30,0006.95,0006.71
2022-09-12 05:06:00,,0830.9,5.00,0.00,29.8,28.3,00.0,38.6,31.5,14.1,0002.8,0009.37,0006.98,0006.73
2022-09-12 05:07:00,,0830.8,5.01,0.00,29.8,28.4,00.0,38.6,31.5,13.7,0002.5,0009.42,0007.01,0006.75
2022-09-12 05:08:00,,0830.9,4.98,0.00,29.8,28.3,00.0,38.6,31.5,13.5,0002.0,0009.43,0007.02,0006.76
2022-09-12 05:09:00,,0830.8,5.00,0.00,29.8,28.3,00.0,38.6,31.5,14.3,0001.6,0009.45,0007.02,0006.76
2022-09-12 05:10:00,,0830.8,5.00,0.00,29.7,28.2,00.0,38.6,31.5,14.0,0001.5,0009.59,0007.04,0006.76
2022-09-12 05:11:00,,0830.8,5.00,0.00,29.7,28.2,00.0,38.6,31.5,13.5,0001.3,0009.97,0007.07,0006.76
2022-09-12 05:12:00,,0830.8,4.99,0.00,29.7,28.2,00.0,38.6,31.4,13.5,0000.9,0010.49,0007.10,0006.78
2022-09-12 05:13:00,,0830.8,5.01,0.00,29.7,28.2,00.0,38.5,31.4,13.5,0000.7,0010.64,0007.11,0006.79
2022-09-12 05:14:00,,0830.8,5.01,0.00,29.7,28.2,00.0,38.5,31.4,13.5,0000.5,0010.68,0007.13,0006.81
2022-09-12 05:15:00,,0830.8,5.01,0.00,29.7,28.2,00.0,38.5,31.4,13.5,0000.4,0010.62,0007.14,0006.82
2022-09-12 05:16:00,,0830.8,4.98,0.00,29.7,28.2,00.0,38.5,31.4,13.7,0000.7,0010.57,0007.17,0006.84
2022-09-12 05:17:00,,0830.7,5.00,0.00,29.7,28.1,00.0,38.5,31.4,13.4,0001.0,0010.51,0007.14,0006.83
2022-09-12 05:18:00,,0830.8,5.00,0.00,29.7,28.0,00.0,38.5,31.4,13.5,0001.1,0010.56,0007.17,0006.84
2022-09-12 05:19:00,,0830.8,5.00,0.00,29.7,28.1,00.0,38.5,31.4,13.5,0000.8,0010.51,0007.16,0006.85
2022-09-12 05:20:00,,0830.7,5.01,0.00,29.7,28.1,00.0,38.5,31.3,13.4,0000.9,0010.56,0007.19,0006.87
2022-09-12 05:21:00,,0830.8,5.01,0.00,29.6,28.1,00.0,38.5,31.4,13.6,0001.1,0010.59,0007.20,0006.88
2022-09-12 05:22:00,,0830.8,5.00,0.00,29.6,28.0,00.0,38.5,31.4,13.5,0001.1,0010.39,0007.19,0006.90
2022-09-12 05:23:00,,0830.8,4.98,0.00,29.6,28.0,00.0,38.5,31.4,13.6,0001.4,0009.95,0007.20,0006.90
2022-09-12 05:24:00,,0830.8,5.00,0.00,29.6,28.1,00.0,38.5,31.3,13.1,0001.7,0009.83,0007.19,0006.90
2022-09-12 05:25:00,,0830.8,5.01,0.00,29.6,28.0,00.0,38.5,31.3,12.9,0001.7,0009.87,0007.20,0006.89
2022-09-12 05:26:00,,0830.7,5.00,0.00,29.6,28.0,00.0,38.5,31.3,13.2,0001.4,0009.86,0007.18,0006.88
2022-09-12 05:27:00,,0830.8,5.00,0.00,29.6,28.1,00.0,38.5,31.3,13.7,0001.3,0009.83,0007.16,0006.87
2022-09-12 05:28:00,,0830.8,4.99,0.00,29.6,28.1,00.0,38.4,31.3,13.6,0000.9,0009.90,0007.17,0006.86
2022-09-12 05:29:00,,0830.8,4.99,0.00,29.6,28.0,00.0,38.4,31.3,13.5,0001.0,0009.86,0007.15,0006.86
2022-09-12 05:30:00,,0830.8,5.01,0.00,29.6,28.0,00.0,38.4,31.3,13.8,0001.2,0009.83,0007.15,0006.86
2022-09-12 05:31:00,,0830.8,5.00,0.00,29.6,28.1,00.0,38.4,31.3,14.0,0001.6,0009.75,0007.14,0006.86
2022-09-12 05:32:00,,0830.7,4.98,0.00,29.6,28.1,00.0,38.4,31.3,13.8,0001.6,0009.74,0007.15,0006.85
2022-09-12 05:33:00,,0830.7,5.01,0.00,29.6,28.1,00.0,38.4,31.3,14.3,0001.7,0009.55,0007.15,0006.86
2022-09-12 05:34:00,,0830.8,5.01,0.00,29.6,28.1,00.0,38.4,31.3,14.0,0001.7,0009.61,0007.20,0006.90
2022-09-12 05:35:00,,0830.8,4.98,0.00,29.6,28.0,00.0,38.4,31.3,14.3,0001.8,0009.62,0007.22,0006.92
2022-09-12 05:36:00,,0830.7,5.00,0.00,29.6,28.0,00.0,38.4,31.3,14.3,0002.4,0009.63,0007.23,0006.95
2022-09-12 05:37:00,,0830.8,5.01,0.00,29.6,28.1,00.0,38.4,31.3,14.0,0002.7,0009.82,0007.30,0006.99
2022-09-12 05:38:00,,0830.8,5.01,0.00,29.6,28.0,00.0,38.4,31.3,13.8,0002.3,0009.91,0007.33,0007.01
2022-09-12 05:39:00,,0830.7,4.98,0.00,29.6,28.0,00.0,38.4,31.3,13.4,0002.4,0010.09,0007.38,0007.03
2022-09-12 05:40:00,,0830.7,5.00,0.00,29.6,28.1,00.0,38.4,31.3,13.0,0002.1,0010.16,0007.42,0007.05
2022-09-12 05:41:00,,0830.7,5.01,0.00,29.6,28.1,00.0,38.4,31.3,12.6,0002.5,0010.16,0007.41,0007.04
2022-09-12 05:42:00,,0830.7,5.01,0.00,29.6,28.0,00.0,38.4,31.3,12.9,0002.0,0010.19,0007.39,0007.02
2022-09-12 05:43:00,,0830.7,4.98,0.00,29.6,28.0,00.0,38.4,31.3,13.2,0001.8,0010.11,0007.37,0007.04
2022-09-12 05:44:00,,0830.6,5.00,0.00,29.6,28.0,00.0,38.4,31.3,13.2,0001.6,0010.16,0007.38,0007.04
2022-09-12 05:45:00,,0830.6,5.01,0.00,29.6,28.0,00.0,38.4,31.3,13.1,0001.9,0010.09,0007.33,0007.01
2022-09-12 05:46:00,,0830.6,5.01,0.00,29.5,28.0,00.0,38.4,31.3,13.4,0001.3,0010.28,0007.29,0006.98
2022-09-12 05:47:00,,0830.6,5.00,0.00,29.5,27.9,00.0,38.4,31.2,13.4,0000.9,0010.65,0007.27,0006.95
2022-09-12 05:48:00,,0830.6,4.98,0.00,29.5,27.9,00.0,38.4,31.2,13.8,0000.5,0010.67,0007.22,0006.92
2022-09-12 05:49:00,,0830.6,5.00,0.00,29.5,27.9,00.0,38.3,31.2,14.1,0000.7,0010.87,0007.18,0006.90
2022-09-12 05:50:00,,0830.6,5.00,0.00,29.5,27.8,00.0,38.3,31.1,13.9,0000.9,0010.82,0007.14,0006.88
2022-09-12 05:51:00,,0830.6,5.00,0.00,29.4,27.8,00.0,38.3,31.1,14.6,0000.8,0010.74,0007.10,0006.86
2022-09-12 05:52:00,,0830.6,5.01,0.00,29.4,27.9,00.0,38.3,31.1,14.1,0000.5,0010.72,0007.10,0006.85
2022-09-12 05:53:00,,0830.6,4.99,0.00,29.4,27.9,00.0,38.3,31.1,13.7,0000.5,0010.69,0007.09,0006.84
2022-09-12 05:54:00,,0830.6,5.01,0.00,29.4,27.9,00.0,38.3,31.1,13.4,0000.7,0010.64,0007.05,0006.82
2022-09-12 05:55:00,,0830.6,5.01,0.00,29.4,27.9,00.0,38.3,31.1,13.2,0000.9,0010.60,0007.01,0006.78
2022-09-12 05:56:00,,0830.6,5.00,0.00,29.4,27.9,00.0,38.3,31.1,13.5,0000.5,0010.71,0007.04,0006.78
2022-09-12 05:57:00,,0830.6,5.01,0.00,29.4,27.9,00.0,38.3,31.1,14.7,0001.1,0010.61,0007.04,0006.78
2022-09-12 05:58:00,,0830.6,4.99,0.00,29.4,27.9,00.0,38.3,31.1,13.7,0001.2,0010.20,0007.01,0006.78
2022-09-12 05:59:00,,0830.6,5.01,0.00,29.4,27.9,00.0,38.3,31.2,13.7,0001.5,0009.96,0007.00,0006.77
